Theta_e
347 347 349 350 351 351 351 351 350 350 350 350 349 345 345 345 342 342 343 342 342 343 343 342 344 348 349 347 344 343 343 344 344 341 340 341 343 344 341 341 343 344 344 344 342 342 341 342 342 341 341 340 340 340 341 341 340 339 338 336 336 335 335 335 334 333 332 332 331 331 331 332 332 333 333 332 332 333 333 334 335 335 336 336 336
350 350 350 351 351 350 351 350 350 350 350 350 349 345 345 346 344 343 344 343 343 343 341 340 342 345 348 348 346 346 346 345 344 343 342 342 343 345 341 340 343 344 344 344 343 343 342 343 342 342 341 341 340 340 340 341 341 340 339 339 337 336 336 336 335 334 334 333 332 332 331 331 331 332 333 333 332 332 332 333 333 334 335 336 336
349 351 352 352 351 351 351 350 351 350 347 349 349 345 344 345 344 344 344 341 341 340 339 338 339 341 344 344 344 347 347 346 346 346 346 346 345 344 342 341 342 343 344 344 345 344 344 344 343 343 341 340 340 341 341 340 340 341 340 340 340 338 337 337 336 336 335 334 333 332 332 331 330 331 332 333 333 333 332 332 333 333 334 335 335
346 349 351 350 351 351 351 351 350 348 345 346 346 344 345 345 345 345 342 337 337 339 338 337 339 340 342 342 342 346 348 346 346 347 347 347 345 344 344 344 342 342 343 344 345 344 344 344 344 343 342 341 341 341 341 341 340 341 341 341 341 339 338 337 336 336 336 336 334 333 333 332 331 330 330 331 333 333 333 332 332 332 333 334 335
346 347 348 348 351 350 351 352 349 347 346 346 345 345 347 348 348 345 340 337 337 339 338 339 341 341 341 343 342 343 345 345 345 346 347 347 346 346 346 346 344 341 342 343 345 344 343 343 344 344 343 342 342 342 342 342 341 340 341 341 341 340 339 338 337 336 337 337 336 335 334 333 333 332 330 329 330 332 333 333 333 332 332 333 335
345 345 345 348 351 351 351 351 348 347 347 347 346 346 348 348 345 342 339 338 339 338 337 338 340 339 337 338 339 339 341 343 345 346 347 346 346 346 346 346 346 344 341 341 342 341 340 340 342 343 343 342 342 342 342 342 342 341 341 341 340 340 340 339 338 337 337 337 338 338 337 335 335 334 333 331 329 329 331 332 333 333 332 333 333
344 344 345 347 349 352 352 349 347 348 347 346 345 345 345 343 340 339 340 340 339 337 337 337 338 337 335 334 336 336 337 341 343 345 346 346 346 346 345 346 347 346 344 342 340 339 338 339 340 341 342 341 342 342 342 342 342 342 343 342 341 340 340 340 340 339 338 338 338 339 338 338 337 336 335 335 333 330 329 329 331 332 332 332 332
345 346 346 346 348 349 349 347 346 347 345 343 342 341 340 339 340 340 339 337 336 337 338 338 338 339 338 336 337 336 336 340 340 343 345 345 345 346 345 345 345 344 342 342 342 341 339 339 340 340 341 342 341 342 342 342 342 342 343 343 342 341 339 339 340 340 340 339 338 338 339 339 338 338 337 337 336 334 332 330 329 330 330 331 332
346 346 347 347 347 347 348 347 344 343 342 340 338 337 336 337 338 337 335 331 332 337 339 339 339 339 339 339 338 337 337 338 338 340 341 340 343 345 346 345 342 341 342 344 346 343 340 339 339 340 341 342 341 342 342 342 341 341 341 341 342 342 341 341 341 341 341 341 340 339 339 338 338 338 338 338 338 337 336 334 332 330 329 330 330
346 347 347 346 345 346 347 345 342 339 337 335 334 334 334 335 335 333 330 325 330 337 338 339 339 338 338 339 338 335 335 336 334 335 337 340 342 343 344 342 339 340 342 344 345 344 341 339 338 339 340 340 341 341 341 341 341 342 342 341 341 343 344 344 343 342 341 341 341 341 339 338 339 339 339 338 338 338 338 337 336 334 332 330 329
346 347 346 345 345 345 344 342 339 336 332 333 336 336 335 333 330 327 324 326 332 336 337 339 338 338 338 339 337 333 333 335 334 334 337 341 343 342 343 342 341 342 341 342 344 345 343 340 339 340 340 339 339 340 340 339 340 341 342 343 344 345 346 345 343 342 342 342 340 339 338 338 338 338 337 337 337 337 338 339 338 337 335 333 331
345 345 344 344 344 343 341 338 335 331 330 334 337 337 332 326 322 322 326 333 336 337 338 337 337 338 338 337 337 335 335 335 336 337 338 341 342 343 345 345 344 344 343 343 344 345 344 341 339 340 341 340 338 339 339 339 339 339 340 341 344 345 344 343 341 340 341 340 339 338 337 337 337 337 337 337 337 337 337 337 338 338 337 336 335
344 344 344 345 343 340 339 335 332 331 331 332 332 328 323 321 323 329 332 336 338 338 337 335 336 339 339 338 337 335 335 336 338 339 339 340 341 342 343 344 343 343 342 342 341 341 343 342 340 340 340 340 341 341 339 340 340 340 341 341 343 342 341 340 339 339 338 338 339 340 339 339 338 338 338 338 338 338 338 337 336 337 338 338 337
344 344 343 344 342 339 337 333 331 333 331 329 326 320 319 325 331 336 336 334 336 336 335 335 339 341 339 339 340 336 335 337 339 339 339 339 339 340 340 340 340 340 339 340 339 340 341 340 339 339 338 339 343 343 340 341 341 341 342 342 343 341 340 340 339 340 340 339 339 339 339 339 339 339 339 339 339 339 339 338 335 333 335 337 338
344 345 344 342 340 338 335 332 331 331 328 327 326 324 325 330 334 335 335 335 336 335 332 333 338 339 338 338 339 339 338 338 338 338 338 338 338 337 337 337 337 335 336 337 337 337 337 335 334 334 335 336 338 339 340 342 341 340 341 342 342 340 340 340 340 340 340 340 340 338 338 339 340 340 340 340 340 339 339 339 338 334 333 334 336
345 345 343 341 339 337 334 331 332 329 324 323 327 332 333 332 333 333 333 337 339 337 335 332 333 336 339 339 338 339 339 338 338 338 338 337 337 336 336 335 334 332 333 334 333 333 331 330 329 329 330 331 332 333 336 338 337 337 339 339 340 340 340 340 341 341 340 340 340 340 339 339 340 340 341 341 341 340 339 339 339 338 335 333 332
345 343 340 339 338 335 332 331 332 327 321 324 328 331 332 331 332 332 331 335 338 338 337 334 331 332 335 338 338 338 338 337 337 337 337 336 336 336 333 332 330 327 327 327 325 326 326 325 324 325 325 326 327 327 329 331 331 334 336 337 337 337 337 338 339 340 340 340 340 340 340 339 339 339 339 341 341 341 341 340 339 339 338 336 333
343 341 339 338 335 332 330 330 330 325 320 325 326 325 329 331 333 333 332 333 335 337 338 335 332 330 330 331 334 337 338 337 338 337 337 336 336 334 332 329 325 321 320 320 320 319 322 323 319 320 321 321 322 322 323 323 324 326 328 329 329 329 330 332 334 336 338 339 339 340 340 339 339 338 338 339 340 342 342 341 340 339 339 339 337
340 339 338 337 336 333 331 329 328 325 320 322 325 328 331 332 332 334 333 333 335 337 338 336 335 333 330 330 332 334 334 335 337 337 337 336 335 333 331 329 326 323 320 321 322 319 320 322 320 318 319 319 319 319 319 319 320 320 321 321 322 322 323 325 327 330 332 335 337 338 339 339 340 340 339 339 340 341 343 343 342 340 340 340 339
340 340 340 341 340 337 333 326 324 325 321 324 329 328 329 331 331 333 333 333 335 336 336 336 337 336 334 334 334 333 332 332 334 335 336 336 335 334 332 330 328 327 324 323 322 319 317 319 320 318 317 316 316 316 316 316 317 317 318 318 318 319 319 320 321 323 325 328 331 334 337 338 340 340 341 341 341 342 343 343 343 342 341 341 341
345 344 343 342 339 334 329 321 319 322 322 327 331 326 326 332 332 332 334 334 334 333 334 336 336 335 335 335 335 334 333 333 333 334 335 335 334 334 332 331 329 327 326 325 323 321 318 317 318 320 320 318 316 316 317 317 316 315 315 316 316 316 317 318 318 319 320 322 324 327 330 333 336 339 340 341 341 342 343 344 344 343 343 343 342
346 345 341 338 333 328 324 318 318 322 321 327 331 327 327 329 330 333 334 334 333 332 333 334 335 335 334 334 335 335 335 335 334 334 334 334 334 333 332 332 330 328 327 325 324 325 323 320 322 324 324 322 320 319 319 319 319 318 316 315 315 315 315 316 317 318 318 319 320 321 323 326 329 333 337 339 340 341 342 344 344 344 343 343 342
345 343 336 332 329 324 322 320 319 322 322 323 326 328 331 331 331 333 333 332 333 332 332 332 333 334 334 333 334 335 334 334 334 334 333 333 333 333 332 331 330 330 329 326 324 325 325 324 325 325 324 324 322 320 320 320 320 319 318 317 315 315 314 315 315 316 317 318 318 319 319 320 322 325 329 334 337 340 341 342 343 344 343 343 342
340 336 329 327 326 320 319 320 318 321 324 327 328 331 334 335 333 333 332 332 332 332 333 332 331 333 334 333 333 333 333 332 332 333 333 332 332 332 332 332 331 330 330 328 327 327 327 326 327 326 325 324 322 320 319 322 323 321 320 319 317 316 315 314 315 316 317 317 318 318 318 319 319 321 322 326 330 335 339 341 342 343 343 343 343
331 327 326 327 324 318 317 317 316 319 325 331 333 333 334 335 334 331 331 332 331 332 333 330 329 331 332 331 331 331 331 331 330 331 333 332 331 332 331 331 331 331 330 330 329 329 328 327 328 327 326 324 324 322 319 324 326 322 320 320 318 316 315 315 315 315 316 317 317 318 319 319 319 319 320 321 323 327 332 337 340 342 343 343 344
326 325 327 330 327 321 317 316 316 317 324 331 333 332 331 331 331 329 329 329 330 331 331 329 327 327 328 328 328 329 330 331 332 332 333 332 332 332 332 331 331 331 331 331 330 329 328 328 328 327 326 324 325 323 320 323 326 323 321 321 319 318 316 315 316 316 316 317 317 318 318 319 319 320 320 320 320 321 324 329 334 338 341 343 343
329 327 329 329 325 322 318 317 317 317 324 331 330 328 327 326 327 327 327 328 328 330 329 327 327 326 328 329 329 330 330 331 332 332 332 332 331 331 331 332 331 330 330 330 330 330 329 328 328 328 327 324 322 322 320 321 323 323 322 321 320 319 317 316 316 316 317 317 317 318 318 318 319 319 320 320 320 320 321 322 325 330 335 339 342
331 328 328 326 321 319 317 317 318 317 322 327 326 326 325 324 325 325 326 328 327 327 327 326 326 327 328 329 329 331 331 330 330 331 331 331 330 329 330 331 332 331 330 329 329 329 329 328 328 328 328 325 322 320 320 321 322 321 321 322 321 319 318 316 316 316 317 317 318 318 318 317 317 318 318 319 320 320 321 321 321 323 326 332 337
330 327 326 323 318 317 316 317 318 317 318 321 322 324 324 323 323 323 326 330 327 325 326 326 326 328 328 329 329 330 331 331 330 330 331 331 330 329 329 331 331 331 331 330 329 328 328 328 328 328 329 327 325 323 320 320 321 321 321 322 321 321 319 317 316 316 317 318 318 318 318 317 317 317 317 318 318 319 320 321 322 322 322 324 328
325 324 322 320 317 316 316 317 317 316 317 319 321 322 322 323 324 322 323 325 325 324 325 325 327 328 327 328 329 330 330 331 331 331 331 330 329 329 330 330 331 331 331 331 330 329 329 329 329 329 329 329 328 328 325 321 320 320 320 321 322 322 321 318 316 316 317 317 318 318 318 318 317 317 318 318 318 318 319 320 322 322 323 322 323
319 319 318 318 316 315 316 316 317 317 317 318 320 321 321 322 324 327 326 323 322 326 328 328 328 329 328 327 328 329 330 330 332 332 331 329 329 329 330 330 331 331 331 331 331 330 330 330 329 329 330 329 329 329 327 324 323 322 320 321 322 322 321 319 317 316 316 317 318 318 318 318 317 317 317 318 318 318 318 318 319 322 323 323 323
316 315 316 316 316 316 316 317 318 318 318 320 321 321 320 321 324 331 334 329 325 328 330 330 330 329 327 327 327 328 329 331 332 332 331 331 331 331 329 328 328 328 327 329 331 331 329 329 329 330 330 330 329 329 328 325 324 324 324 322 320 319 320 320 317 315 316 317 318 318 318 318 318 317 317 317 317 318 318 318 318 319 321 323 324
315 315 315 316 316 316 317 317 318 320 321 321 322 322 321 321 324 329 331 329 326 328 329 329 330 328 326 325 326 327 328 329 331 331 332 331 331 330 329 327 327 326 325 327 329 330 329 328 328 329 329 329 329 329 329 326 325 325 326 326 323 320 320 322 321 321 318 317 318 318 318 318 318 317 317 317 317 317 317 318 318 318 319 321 322
315 315 315 316 316 317 317 317 318 320 320 320 322 323 322 323 327 329 329 328 328 329 329 329 329 329 328 326 325 326 327 327 328 330 330 330 330 330 329 328 328 327 327 326 326 329 330 329 328 329 329 329 329 329 328 327 326 327 327 328 327 325 323 323 324 325 322 318 318 318 318 318 318 318 317 317 317 317 317 317 318 318 318 319 320
315 316 316 316 316 317 317 317 318 320 320 321 323 325 325 325 327 329 331 331 330 331 331 330 329 330 330 330 330 329 329 327 327 328 329 329 328 328 327 326 325 325 325 324 324 326 328 329 328 328 328 328 328 328 327 327 327 328 327 327 327 326 325 323 324 325 323 319 318 318 318 318 318 318 318 317 317 317 317 317 317 317 317 317 318
316 316 316 316 317 317 317 317 319 320 321 322 324 325 326 325 326 328 330 330 330 330 330 330 330 331 332 332 332 332 330 328 326 326 327 328 327 327 326 325 324 324 323 323 324 325 326 328 328 328 328 328 328 327 327 327 327 327 327 326 326 326 325 325 325 326 325 321 318 318 318 318 318 319 318 318 318 317 317 317 317 317 317 317 317
318 318 317 316 317 317 317 318 318 321 321 323 325 325 325 325 326 328 330 330 329 329 329 329 329 330 331 332 332 332 331 328 326 327 328 327 327 327 326 326 326 326 325 324 325 326 326 327 328 327 328 328 327 326 327 327 327 327 326 326 325 325 325 326 326 327 326 324 322 319 318 318 318 319 318 318 318 318 318 317 317 317 317 317 317
320 323 319 316 317 317 317 318 318 320 322 323 324 325 325 326 327 329 330 330 329 329 329 329 329 330 330 329 330 331 330 327 327 328 328 327 326 326 327 327 327 327 327 326 326 327 327 327 327 327 328 328 327 327 327 327 327 327 326 326 326 325 325 326 326 326 326 326 325 324 322 320 319 319 319 319 319 318 318 317 317 317 317 317 317
319 322 320 317 317 318 317 318 318 320 322 323 324 324 325 327 328 329 329 329 329 329 329 328 330 331 330 328 327 328 327 326 327 328 328 327 326 326 326 327 327 327 327 327 327 327 327 327 326 327 327 328 327 327 327 326 326 326 326 326 326 325 325 326 326 326 325 325 326 326 324 324 323 322 322 322 322 320 318 318 317 317 317 316 316
319 320 320 318 318 318 317 318 318 319 322 323 324 325 326 327 328 328 329 329 329 329 329 328 328 330 330 330 330 330 329 327 325 327 328 329 328 328 327 327 327 328 328 328 328 327 327 326 326 326 327 327 327 327 327 326 326 326 326 325 325 325 326 326 326 327 326 325 325 326 326 325 325 325 325 324 324 323 322 320 318 317 317 317 317
320 320 319 318 320 320 318 318 318 319 321 323 324 325 326 327 328 329 329 329 328 328 330 330 329 328 328 329 331 331 329 325 323 323 324 325 327 327 327 327 327 328 329 329 328 327 327 326 326 326 326 326 326 326 326 326 326 325 325 325 325 325 326 326 326 326 326 325 325 325 325 325 325 325 325 325 325 324 324 323 322 323 322 320 318
320 320 318 319 321 321 319 318 318 318 320 322 323 324 326 328 329 330 330 330 327 328 330 330 329 329 329 329 330 329 326 322 321 322 321 322 325 325 326 326 327 327 327 327 327 327 327 326 326 326 326 326 326 326 326 326 325 325 325 325 325 325 325 326 326 325 324 324 324 324 324 324 325 324 323 324 324 324 325 325 325 325 324 321 318
321 319 318 320 321 322 321 319 318 319 320 322 323 323 325 328 329 329 330 331 330 329 329 329 329 329 330 330 331 331 329 326 324 323 323 323 325 327 327 327 326 325 325 325 325 325 325 326 326 325 326 326 325 325 325 325 325 325 325 325 325 326 326 326 325 325 324 324 323 323 323 323 323 324 323 323 323 323 324 325 325 324 323 320 318
322 319 319 321 323 323 322 320 319 319 320 321 322 322 324 327 329 328 328 330 332 332 331 332 331 331 331 331 331 332 332 331 329 327 327 326 326 326 327 327 326 325 324 324 325 325 325 325 324 323 324 324 324 324 325 325 325 325 325 325 325 325 325 326 325 324 323 322 321 321 321 321 322 324 324 324 324 323 324 324 324 324 323 320 319
323 320 319 323 325 324 323 321 320 320 320 321 321 321 323 326 328 327 326 327 331 331 331 332 332 331 331 332 331 331 332 332 331 328 328 327 326 327 327 327 326 325 324 324 325 325 325 324 323 322 321 321 322 322 323 324 325 326 325 324 324 325 325 325 323 322 321 319 319 320 322 321 322 323 323 323 323 324 324 324 324 324 323 321 319
323 321 319 323 327 326 325 323 321 320 321 321 321 320 321 323 325 326 326 327 329 329 330 331 331 330 331 331 332 331 331 333 333 332 330 328 327 328 328 328 327 327 327 326 325 325 325 324 324 323 321 320 321 322 323 324 326 326 325 325 324 324 323 321 320 319 318 317 319 321 323 323 323 323 323 323 323 324 323 323 323 324 322 320 319
322 322 319 321 325 326 325 324 322 322 322 322 322 321 321 322 323 325 327 328 329 330 330 331 331 330 330 331 332 332 332 333 333 332 330 328 327 328 328 329 329 328 328 326 325 325 325 325 325 323 322 321 321 321 323 324 324 323 323 324 323 322 321 320 320 320 320 320 320 322 323 323 323 322 322 322 323 323 323 323 323 323 322 321 320
321 322 320 321 324 324 325 324 323 323 323 324 325 324 321 322 324 326 328 329 330 331 332 333 333 332 332 332 331 331 331 331 331 329 328 328 328 328 328 328 328 327 327 324 322 323 325 325 323 321 320 320 319 319 320 321 321 321 322 322 321 320 321 321 321 321 321 321 321 322 322 322 322 321 321 322 322 323 323 322 322 322 322 322 320
321 322 321 322 323 322 323 324 324 324 325 327 327 324 322 325 328 329 329 329 330 330 332 333 333 332 332 332 331 331 331 331 330 329 328 329 329 329 329 329 327 327 326 324 324 323 323 322 320 319 319 318 318 319 320 320 321 321 321 320 320 320 321 321 321 322 322 321 321 321 321 322 321 321 321 321 321 322 322 322 322 322 322 322 320
324 326 323 321 322 321 320 323 323 322 325 330 329 325 325 329 332 333 332 331 330 330 330 331 332 334 334 333 332 332 333 333 332 331 329 329 329 329 329 328 327 327 327 327 327 326 324 323 321 321 319 318 318 320 321 321 322 322 321 320 320 321 321 321 321 321 321 320 320 320 321 321 321 320 321 321 321 322 322 322 322 321 321 320 320
325 328 326 323 322 321 321 325 327 325 327 331 332 329 329 333 335 336 336 335 333 333 333 334 335 336 335 334 333 333 332 332 331 331 329 328 328 328 328 327 327 327 328 329 327 325 324 323 322 322 320 319 320 321 322 322 322 321 321 321 321 321 321 320 320 320 320 320 319 319 320 320 320 320 321 321 322 322 321 321 321 320 320 320 320
Wind_Speed
6 5 5 5 5 6 5 6 6 7 7 7 8 8 8 9 10 9 10 11 10 10 9 10 10 7 7 8 9 9 9 9 9 9 8 7 7 9 9 8 6 6 5 4 3 3 4 6 7 8 7 8 10 12 12 12 13 12 12 12 12 12 12 12 11 11 11 10 10 10 10 10 10 10 9 9 10 10 10 9 9 9 9 8 7
6 5 5 5 6 6 6 6 7 7 7 7 8 9 9 9 11 11 11 11 10 9 9 10 10 9 9 9 9 9 9 9 9 9 8 8 7 8 10 9 7 6 5 5 4 4 4 5 6 7 8 8 9 10 12 13 14 15 14 13 13 12 12 13 12 12 11 11 11 11 11 11 11 12 12 11 11 11 11 11 11 10 10 10 8
7 6 6 6 6 6 6 6 8 10 8 7 9 10 10 11 12 12 11 9 9 10 10 10 10 10 10 10 10 8 8 8 8 8 7 7 7 8 10 9 9 8 7 6 5 5 5 5 6 6 7 7 8 9 11 13 15 17 16 15 14 14 13 13 13 13 13 12 11 11 11 11 11 12 13 13 12 12 12 12 12 12 11 11 10
9 8 7 7 7 7 7 7 9 12 11 10 11 12 12 12 13 11 9 9 10 10 10 10 10 10 10 10 9 8 7 8 7 7 7 8 9 9 9 9 10 9 8 8 7 7 7 7 7 6 6 7 8 9 11 13 15 17 17 16 16 16 15 14 14 14 14 14 13 12 11 11 11 11 12 14 14 14 13 13 13 13 13 12 11
10 9 9 8 7 8 7 8 11 12 13 14 14 13 12 11 12 10 9 10 10 9 9 9 10 10 9 9 9 7 7 8 7 6 6 7 8 8 8 8 9 9 9 10 9 8 8 8 8 7 6 7 9 11 11 13 14 16 17 16 16 17 17 16 15 15 15 15 14 14 13 12 12 11 11 12 14 15 15 14 14 14 14 13 13
11 10 9 8 8 8 8 10 12 13 14 15 14 13 11 10 10 9 9 9 9 10 10 9 10 11 11 10 9 8 7 7 6 6 7 7 7 8 8 8 8 8 9 10 11 11 10 10 9 8 8 9 10 11 13 14 14 15 16 16 16 18 18 17 16 16 16 16 16 15 14 14 13 12 12 11 13 14 15 16 15 15 15 14 14
10 9 9 8 8 8 9 11 12 13 14 13 12 12 10 10 10 9 8 8 9 11 11 11 10 11 11 11 10 9 8 7 7 6 7 7 7 8 8 8 9 9 9 10 11 12 11 11 10 10 10 10 11 11 13 14 15 15 15 16 16 17 18 18 18 18 17 17 17 16 16 15 15 15 14 13 12 13 14 15 16 16 16 16 15
9 9 9 9 9 9 12 13 13 13 13 11 11 11 10 10 10 9 8 9 11 11 10 10 9 9 9 9 9 9 8 7 7 6 6 7 7 7 7 8 9 10 11 10 10 12 12 11 11 11 11 11 11 12 13 14 14 15 16 16 17 17 18 17 18 19 19 18 17 17 16 16 16 16 16 15 15 14 14 14 15 16 16 17 17
9 10 9 10 10 11 12 13 12 11 11 11 10 11 10 10 10 10 11 13 12 9 8 8 7 7 7 7 7 7 7 7 7 7 7 7 6 6 6 7 8 9 9 8 9 11 11 11 12 12 13 12 12 13 13 13 13 14 16 16 17 17 17 17 17 17 18 18 18 17 16 16 17 17 17 17 17 16 16 15 15 15 15 16 17
10 10 10 10 11 11 11 11 11 10 12 12 10 10 9 10 11 12 13 12 9 7 7 7 7 7 6 6 6 5 5 6 7 7 6 5 5 5 5 7 7 7 7 7 8 9 10 11 11 12 13 13 13 13 13 12 12 13 15 16 16 17 17 16 16 15 15 16 17 18 18 18 18 18 18 18 18 18 18 17 16 16 16 16 16
11 11 11 11 11 10 9 9 10 12 12 10 8 8 9 11 12 13 11 8 5 5 5 5 6 6 5 5 4 3 4 5 6 6 5 4 4 4 4 4 5 5 6 6 6 7 8 10 10 10 11 11 12 13 14 13 13 13 14 15 16 15 14 13 13 14 14 15 16 17 18 18 18 18 18 18 18 19 20 19 19 18 18 17 17
12 12 11 11 10 8 8 10 12 12 10 8 7 8 11 13 11 9 6 5 5 4 4 5 4 5 4 4 3 2 2 3 3 3 2 2 2 1 1 2 2 3 3 4 4 4 6 8 8 8 9 10 9 11 13 14 14 15 16 16 16 14 12 10 11 13 15 16 17 17 17 18 19 19 19 19 20 20 20 21 21 20 19 19 19
13 11 11 11 9 8 9 11 11 9 7 8 9 10 11 9 6 4 3 4 4 3 4 4 4 5 4 3 2 2 1 1 2 2 1 1 1 1 1 1 1 2 3 3 4 3 4 6 6 7 7 8 8 8 10 11 12 14 15 16 16 16 14 12 13 14 16 16 17 17 18 19 20 21 21 21 21 21 21 22 22 22 21 20 20
13 11 10 9 8 9 9 9 8 7 8 9 9 8 7 4 2 2 3 4 3 2 4 4 4 5 4 2 1 1 0 1 3 2 2 2 2 2 1 1 1 2 2 2 3 2 3 4 5 6 7 7 6 7 8 8 10 12 13 13 13 13 14 14 15 16 16 17 17 18 19 20 21 22 22 23 23 23 23 23 22 22 22 22 22
12 10 8 8 8 9 8 8 7 8 9 8 7 5 3 3 1 1 2 3 3 3 3 3 3 4 4 1 0 1 1 2 2 1 2 3 3 3 2 2 2 2 1 1 2 3 4 5 5 6 6 6 6 6 6 7 10 11 11 12 11 9 11 13 14 16 17 18 19 19 19 20 21 21 23 24 25 25 25 24 23 23 22 23 23
9 8 7 7 8 8 8 8 8 9 9 6 4 2 2 2 1 2 1 1 2 3 3 3 2 3 4 3 1 2 2 3 2 1 2 2 3 3 3 3 3 2 1 2 2 4 5 5 6 6 5 5 6 6 6 7 9 9 9 11 11 9 10 11 13 14 16 17 18 19 20 20 20 21 22 24 25 26 26 26 25 24 23 23 23
8 8 8 7 7 7 8 8 9 9 8 4 2 2 2 2 1 2 1 1 0 2 4 4 3 4 4 3 2 1 3 4 2 1 2 1 2 3 4 3 2 2 1 1 1 2 4 5 5 6 6 5 5 5 5 6 7 6 8 9 10 10 10 11 12 14 15 16 17 19 20 21 22 22 22 23 24 25 26 27 27 27 26 25 24
8 8 8 8 8 9 9 9 9 9 6 3 2 2 2 1 1 1 1 2 0 1 3 5 4 3 2 2 1 3 4 4 4 1 3 3 3 3 4 4 4 5 4 3 2 1 2 3 5 5 5 5 4 4 4 5 5 6 7 9 10 10 10 10 12 13 14 16 17 19 20 21 22 22 23 23 23 24 26 28 29 29 29 28 26
9 10 10 9 9 9 9 10 8 7 5 2 2 2 2 2 1 1 1 2 1 1 1 3 4 3 2 1 1 3 3 3 4 3 2 3 3 3 3 3 5 6 5 5 4 3 2 2 3 3 4 5 5 5 5 5 4 4 5 7 8 8 9 10 11 12 14 15 17 19 20 21 21 21 22 24 24 25 25 27 29 30 31 30 29
10 10 9 8 7 7 8 9 7 5 4 2 2 3 3 3 2 1 1 1 1 0 0 1 2 3 2 2 2 2 3 2 2 2 2 1 2 4 3 2 3 4 4 5 4 4 4 4 4 4 5 5 6 6 6 6 6 5 5 6 7 7 7 8 9 11 13 15 16 18 19 21 22 22 22 22 23 24 25 26 27 29 30 30 29
9 8 8 7 7 8 9 8 6 5 4 2 3 4 3 3 2 2 1 1 1 1 1 0 0 1 1 1 1 2 2 3 3 2 3 2 1 2 1 1 1 2 2 2 3 3 3 3 3 3 3 3 4 5 6 7 7 7 6 6 7 7 7 7 7 8 10 13 15 17 19 20 22 23 23 23 23 24 25 26 27 27 28 29 29
7 8 8 8 9 10 9 7 6 6 5 4 5 5 4 3 3 2 2 2 2 2 2 1 1 1 1 1 0 1 1 1 2 3 3 3 3 3 2 1 2 1 1 1 2 2 1 0 1 0 1 3 5 6 7 8 8 8 8 8 7 7 8 8 8 9 9 11 12 15 17 19 21 23 24 25 26 25 25 25 26 26 27 27 28
7 8 9 11 11 10 8 7 7 7 6 6 7 5 4 3 3 3 3 3 2 3 3 2 2 1 1 1 0 1 2 1 1 3 3 3 5 5 4 3 3 3 4 3 3 4 4 3 2 3 4 4 5 7 8 9 10 9 9 10 10 9 9 9 10 10 10 11 12 13 15 17 20 22 24 25 27 28 27 26 25 25 27 28 28
9 11 12 12 11 9 8 8 8 8 7 6 7 5 5 4 4 3 3 3 3 3 3 3 4 2 2 2 1 2 3 2 2 2 3 4 4 5 6 6 5 4 4 4 4 5 6 6 5 5 6 6 8 9 9 9 11 11 11 11 11 11 11 11 11 11 11 11 12 13 14 15 17 20 23 25 26 28 28 28 28 27 27 28 29
13 14 13 12 11 10 8 8 8 8 7 6 6 5 5 5 4 3 4 4 4 3 3 4 5 4 4 4 3 3 4 4 4 2 3 5 4 5 7 7 8 7 6 6 5 6 7 8 7 7 8 8 9 11 11 9 11 13 13 12 12 12 12 12 11 11 12 12 12 13 14 15 16 18 20 23 26 27 29 29 30 30 30 29 29
14 13 12 12 11 10 9 9 8 8 8 7 6 6 5 5 3 3 4 5 5 5 5 6 6 6 6 6 6 5 5 5 5 3 4 5 5 6 7 8 9 10 9 9 7 7 7 8 9 9 10 10 10 12 13 11 12 14 14 14 14 13 12 12 12 12 12 12 12 13 14 14 15 16 18 21 23 26 28 29 30 31 32 32 31
15 13 12 12 12 11 10 9 9 9 8 7 7 7 7 6 5 5 5 6 6 6 6 7 7 8 7 7 7 7 7 7 6 6 6 6 7 7 7 8 9 10 10 9 9 9 8 8 9 9 12 13 12 13 14 13 14 15 15 15 15 15 13 12 12 12 12 12 12 13 14 15 16 16 17 19 21 23 25 27 30 31 33 33 34
15 14 13 13 12 12 11 10 10 10 9 9 9 9 9 8 7 6 6 7 7 7 7 7 8 8 8 8 8 8 8 8 8 8 8 8 8 8 8 9 10 11 11 10 11 11 9 9 10 10 13 14 14 13 13 14 15 16 15 15 15 16 16 14 13 12 12 12 12 12 13 15 17 18 19 19 20 21 23 24 27 29 32 33 34
14 14 14 14 13 13 12 11 12 12 11 11 11 11 10 9 9 8 7 7 8 8 8 8 8 9 9 9 9 9 8 8 9 8 8 8 8 9 9 9 10 11 12 12 12 12 11 11 11 12 13 14 15 15 14 15 16 16 15 16 16 17 17 16 14 13 13 13 13 13 13 15 17 19 20 21 21 20 21 23 24 26 29 32 34
16 15 15 15 15 14 13 12 13 14 13 13 12 12 12 10 10 9 9 9 8 8 8 8 9 9 10 10 10 10 10 9 10 9 9 10 10 10 10 10 10 11 13 14 14 13 13 13 13 13 14 15 15 16 16 15 16 16 15 17 17 17 18 18 17 15 15 14 15 14 14 15 16 18 20 21 22 22 21 21 23 24 26 28 31
17 17 16 16 16 15 14 14 15 15 14 13 13 13 12 11 10 9 8 9 8 8 8 8 9 9 10 10 10 11 11 10 10 10 11 11 11 10 11 11 11 11 12 15 16 15 14 15 16 15 16 17 16 16 16 16 16 16 16 16 17 18 19 19 18 17 16 16 16 16 16 15 16 17 18 19 21 22 22 22 22 23 24 26 28
18 18 17 17 17 16 15 15 15 15 15 13 13 13 12 11 10 8 8 9 8 8 8 8 8 9 10 10 11 12 11 11 10 11 11 11 11 11 12 12 12 13 14 14 17 18 17 16 18 17 17 18 17 16 15 16 16 16 17 17 18 18 18 18 18 18 18 17 17 17 17 16 16 17 17 17 19 20 22 22 22 22 23 25 26
19 19 18 17 17 16 16 16 15 16 16 14 13 13 12 11 11 10 10 10 9 8 8 8 9 10 10 11 12 12 12 12 12 12 12 12 12 12 12 13 13 14 15 16 18 20 19 18 17 18 18 17 17 16 16 17 17 16 16 16 17 16 16 16 17 18 19 19 19 18 18 17 17 18 17 17 18 19 20 20 21 22 23 24 26
21 20 19 17 17 17 17 17 17 17 17 15 14 14 14 13 12 11 10 10 9 9 10 10 10 11 12 12 12 12 13 14 14 13 13 13 13 12 11 12 13 14 15 17 19 19 20 18 15 17 18 16 16 18 17 17 16 14 13 14 16 16 16 15 16 17 20 20 20 20 19 19 19 19 19 18 18 18 19 19 19 20 22 24 26
22 21 19 18 18 19 18 18 18 18 17 16 16 16 16 15 14 12 11 11 11 11 12 12 13 13 13 14 14 13 13 14 15 14 14 14 14 13 13 14 15 15 15 16 18 19 20 19 16 16 17 15 16 18 19 16 14 14 13 13 15 17 16 16 16 17 19 20 20 21 21 21 21 21 21 19 18 19 19 19 19 19 20 22 24
23 21 20 20 20 20 20 20 20 19 18 17 17 18 17 16 15 13 13 12 13 13 14 14 15 15 15 15 15 14 13 15 15 15 15 15 14 14 15 15 15 16 16 16 17 18 19 20 19 19 18 15 15 17 18 16 15 15 15 15 16 17 17 17 16 17 19 20 20 21 21 21 22 22 23 22 20 19 20 20 21 21 21 22 23
25 22 21 21 22 22 21 21 21 20 19 19 18 19 18 17 15 14 14 14 15 15 15 15 16 16 16 17 16 15 14 15 15 15 16 15 15 15 15 16 15 16 17 17 17 17 18 20 20 21 19 16 15 17 17 17 17 16 16 16 17 17 17 16 16 18 20 21 21 22 22 22 23 24 25 25 23 22 21 22 22 22 23 24 25
28 25 25 25 24 23 22 22 22 21 20 20 20 19 19 17 16 15 15 16 17 16 16 16 17 17 18 18 18 17 17 16 16 16 16 16 16 17 17 16 16 16 17 17 17 17 18 19 20 22 20 17 16 17 16 16 17 17 17 16 16 17 18 17 17 18 20 21 22 23 24 24 24 25 26 27 26 24 24 24 23 23 25 26 28
30 28 28 26 24 23 23 23 23 22 21 22 21 20 20 19 18 17 17 17 18 18 17 17 17 17 17 18 19 18 18 18 17 17 17 17 18 18 18 17 17 18 18 18 18 18 19 20 21 21 21 18 17 17 16 16 17 18 17 17 18 19 18 18 18 17 18 20 22 23 25 25 25 24 25 26 26 26 27 26 25 25 25 28 30
32 30 29 27 24 24 24 24 24 23 23 23 22 22 21 20 20 19 18 17 18 18 18 18 18 17 17 18 19 19 19 19 19 18 18 18 18 18 18 18 18 18 19 19 19 19 20 21 22 21 20 20 20 19 19 19 20 20 19 19 21 21 20 20 19 18 20 22 22 22 23 24 25 25 25 26 27 27 28 28 28 26 25 28 32
34 32 30 27 26 26 26 25 25 25 25 24 23 24 23 21 20 19 18 18 18 19 19 18 18 18 18 18 18 19 19 20 19 19 19 19 18 18 19 19 19 19 19 19 19 20 21 22 22 21 20 21 21 20 20 21 22 23 22 22 23 23 23 23 22 21 23 25 25 25 24 24 25 26 26 27 28 28 28 28 27 25 25 29 35
38 34 30 28 28 28 26 27 27 26 26 26 25 25 24 21 19 18 18 18 19 19 19 19 19 19 19 19 19 19 20 20 20 20 20 20 19 19 19 20 21 21 22 22 21 21 22 23 22 21 21 22 21 21 22 22 23 23 23 23 24 23 24 25 26 24 24 25 27 29 29 27 26 29 30 30 31 30 28 28 26 25 27 33 37
39 35 32 30 29 28 27 28 28 27 26 26 26 25 23 21 19 19 19 19 19 19 20 20 20 19 19 19 19 19 20 19 19 20 20 20 19 20 21 22 23 24 24 24 23 23 23 24 23 22 22 23 24 23 24 24 23 23 23 23 23 23 23 25 27 27 24 24 27 31 33 33 32 34 37 34 32 30 28 29 29 30 33 38 40
41 37 35 33 30 29 29 28 28 28 27 27 27 25 23 21 19 19 20 20 20 20 20 20 20 21 21 20 19 19 19 20 20 20 20 21 21 21 22 24 25 25 24 24 23 23 23 24 24 23 24 25 26 26 25 24 24 23 22 23 23 23 23 24 27 29 27 26 31 35 39 39 34 34 35 33 30 29 28 30 33 36 38 40 43
43 40 38 35 30 29 30 28 28 29 28 28 28 26 24 22 20 19 20 21 21 21 21 20 21 22 22 22 21 21 21 21 21 21 22 23 24 24 25 26 26 25 23 22 22 22 23 23 24 25 25 26 27 27 26 24 23 22 23 26 25 23 23 25 28 32 32 32 34 35 35 34 29 28 32 31 28 29 30 31 34 38 39 42 45
45 42 39 36 31 29 29 28 28 28 27 26 27 26 24 21 19 19 20 22 23 23 23 23 23 23 23 24 23 23 23 21 20 21 24 25 26 27 27 27 27 24 22 21 21 22 23 24 25 25 24 24 25 26 25 22 20 21 23 25 25 26 29 32 33 34 35 33 30 28 29 30 26 28 32 31 29 33 35 34 35 38 42 45 46
46 42 39 36 34 32 29 28 28 27 24 23 23 22 21 19 19 20 21 22 23 25 26 26 25 23 24 24 24 25 24 23 23 25 28 28 29 30 30 29 27 24 23 23 23 23 22 23 24 25 25 25 25 25 24 22 22 24 25 25 27 30 31 31 32 32 31 29 25 27 32 32 27 29 33 32 33 37 38 36 37 40 44 46 47
45 41 38 36 36 36 33 29 27 25 23 22 21 19 17 17 18 19 20 22 24 26 27 26 25 24 24 25 26 27 27 28 29 31 31 31 31 32 32 33 32 28 26 25 26 25 23 24 26 27 26 26 27 27 27 27 27 27 26 27 29 29 27 26 28 28 27 25 23 26 33 34 30 31 35 34 35 39 39 37 38 39 43 46 49
43 42 39 35 37 40 37 31 27 25 22 22 21 19 16 17 18 19 20 22 24 26 26 25 25 25 25 27 28 29 30 31 32 34 34 34 33 33 33 34 33 30 26 24 24 24 25 27 28 26 24 24 24 25 26 26 25 24 25 27 29 28 26 27 28 26 25 24 23 25 31 35 32 32 35 36 37 38 38 38 38 38 42 46 50
39 40 39 37 39 43 38 30 28 26 22 21 22 20 18 18 19 19 21 22 23 24 25 24 24 24 24 27 29 30 31 31 31 31 32 34 35 34 32 31 30 27 23 19 17 19 22 25 26 25 24 25 23 22 23 23 22 22 24 26 26 25 25 26 27 26 26 25 23 24 29 34 32 31 34 36 38 37 36 38 41 43 46 48 48
39 36 35 36 41 42 35 27 25 24 22 21 22 22 20 19 19 20 21 23 23 24 23 21 21 21 23 26 27 27 27 26 26 25 26 29 30 29 27 26 25 22 19 16 16 18 20 22 22 22 23 24 23 22 22 22 21 22 24 24 23 22 24 26 26 27 27 25 22 22 28 32 33 32 33 35 39 39 36 39 43 45 47 47 44
Wind_Direction
244 247 251 253 259 266 275 278 281 285 288 292 286 283 289 291 296 299 300 302 302 301 304 309 308 302 294 292 294 293 290 286 282 286 288 287 285 287 289 289 287 290 291 287 275 246 236 234 232 233 233 230 231 234 231 230 230 230 228 226 228 230 228 227 227 230 234 237 240 240 242 248 251 248 240 235 237 242 248 253 253 253 253 254 254
241 246 251 254 261 268 272 276 283 280 281 293 288 285 288 288 293 299 302 304 306 306 308 310 307 301 290 287 290 288 286 284 283 283 283 284 277 276 284 285 280 281 277 274 271 257 243 235 233 230 231 229 231 234 235 233 230 230 228 226 230 234 233 231 229 229 231 234 239 242 244 246 250 253 251 243 239 241 246 253 256 256 254 254 256
238 244 250 256 264 268 271 278 276 270 275 288 285 285 285 287 295 300 306 309 312 309 309 310 310 306 298 295 293 287 284 283 281 279 273 272 267 270 281 281 276 276 274 268 265 260 255 248 240 233 232 233 234 233 234 232 230 231 230 226 227 231 236 237 234 232 230 232 234 237 241 243 245 252 256 253 247 244 246 250 254 258 257 255 254
245 248 251 260 265 266 272 273 270 273 284 289 284 285 287 295 300 299 306 314 313 307 308 313 310 303 300 300 296 290 286 283 282 277 267 262 262 265 272 276 273 269 268 268 266 266 266 261 254 244 235 235 236 234 232 230 230 233 233 231 228 226 231 237 238 236 232 232 233 235 237 238 240 244 253 257 255 251 249 249 252 256 259 257 254
252 255 259 264 266 273 274 266 272 282 290 291 287 287 294 300 299 297 303 308 308 307 314 317 308 302 303 302 296 292 285 283 286 281 272 265 263 261 257 263 269 267 265 262 262 267 271 268 261 247 237 235 233 231 232 231 232 235 235 233 233 230 229 232 237 239 236 236 235 236 237 238 239 239 243 251 254 254 253 252 252 254 258 258 256
259 262 264 269 273 279 276 271 282 289 294 298 294 293 297 294 293 299 302 306 309 311 315 311 302 300 300 298 296 295 292 290 289 278 275 269 260 258 254 253 258 262 263 262 262 265 269 270 264 252 245 244 239 234 232 233 234 238 239 237 236 234 233 231 234 238 239 241 242 240 239 240 242 242 243 245 250 253 253 253 254 254 257 258 257
262 267 270 276 279 278 277 283 292 294 302 309 302 300 303 298 302 307 305 311 313 311 309 301 296 294 292 290 288 287 289 291 288 281 277 272 266 262 257 251 248 249 253 260 268 268 269 270 268 262 257 254 250 244 238 238 238 239 242 242 238 236 236 234 232 234 235 238 242 244 245 244 244 245 246 247 248 252 253 252 252 254 256 258 258
266 271 274 279 281 280 284 292 298 301 308 316 309 309 310 306 307 306 304 309 308 306 304 301 299 295 292 291 285 281 281 285 288 285 276 271 270 265 259 254 249 249 250 252 263 269 270 269 269 266 262 258 255 252 248 246 245 242 241 241 241 239 239 238 235 234 234 235 238 241 246 249 250 249 247 248 249 252 256 255 253 251 253 256 257
271 273 278 285 289 290 292 299 307 308 311 314 311 309 304 297 296 297 301 306 307 304 301 300 296 293 297 295 285 277 273 276 281 281 281 281 274 262 260 257 253 255 253 246 248 261 268 268 267 265 260 258 257 257 256 255 254 250 246 243 242 242 241 241 239 238 239 241 242 242 244 248 250 251 249 249 249 250 252 255 256 253 251 252 254
273 277 284 292 296 298 296 301 310 309 308 309 303 296 290 286 290 296 300 305 305 296 294 295 292 297 304 293 280 269 258 259 264 270 278 281 274 265 261 261 260 254 246 241 241 252 263 267 268 267 261 257 256 258 260 261 260 257 256 252 246 244 245 246 247 248 250 251 253 251 248 247 248 250 250 250 250 250 249 249 252 254 253 250 250
272 281 290 294 296 297 293 299 305 302 302 300 296 293 286 285 292 297 301 306 302 294 300 299 299 310 307 291 283 269 254 250 255 260 261 262 267 273 275 276 273 261 251 245 244 249 257 262 268 272 271 265 258 257 260 261 260 262 263 261 256 251 253 261 265 263 261 258 255 252 250 248 247 248 250 250 250 252 252 248 247 249 252 252 250
275 283 290 291 292 293 296 302 302 300 298 291 286 285 283 286 293 297 300 308 310 311 310 304 313 324 321 314 310 295 272 266 268 265 248 234 242 234 232 254 253 254 259 245 239 247 258 266 271 275 278 280 273 261 260 261 262 262 263 264 265 265 267 272 272 268 264 260 254 252 253 252 248 246 247 248 248 249 251 251 249 247 249 251 251
275 282 287 287 287 293 301 304 302 300 299 291 284 282 283 287 290 299 303 298 306 315 308 320 343 340 340 344 330 332 318 317 359 18 58 116 158 151 154 174 214 246 266 265 260 258 265 277 278 277 278 284 287 274 263 263 263 262 262 265 268 271 273 269 265 264 263 260 255 251 250 251 249 247 247 248 247 247 247 249 250 249 248 249 251
277 283 285 286 291 298 303 307 306 299 298 297 294 292 286 274 259 287 297 287 296 309 313 339 352 331 336 351 306 332 29 51 27 29 54 82 97 88 82 55 312 265 273 287 288 265 253 271 273 273 274 276 281 278 277 275 270 269 271 273 273 271 270 265 258 257 258 257 255 252 250 250 250 249 249 249 248 249 248 248 249 250 249 249 249
280 281 283 288 294 300 305 307 300 293 298 299 297 298 279 256 245 257 284 308 324 324 317 331 334 332 341 1 345 248 168 90 6 16 78 87 89 70 62 39 325 298 317 301 291 279 267 274 273 266 265 265 267 271 280 280 273 276 282 285 284 275 268 262 255 251 252 253 254 255 255 255 254 253 251 249 247 248 248 249 249 249 250 250 250
275 276 281 289 291 297 300 296 289 291 298 296 285 286 276 272 286 279 280 342 343 332 317 321 356 11 4 348 303 232 133 58 354 35 72 72 76 42 44 43 343 323 338 303 282 285 285 291 291 288 280 272 274 274 274 277 279 286 288 288 290 284 274 268 260 254 252 252 254 255 256 256 256 256 253 251 249 248 247 247 248 248 248 249 249
266 270 275 279 283 288 287 283 284 291 296 290 258 245 252 268 285 301 306 264 340 346 317 332 25 35 18 1 314 307 29 11 334 106 72 54 81 41 42 53 24 39 47 350 297 293 299 303 304 310 315 309 303 297 287 285 288 287 283 286 290 289 283 275 269 263 257 254 254 254 255 255 256 257 257 255 253 251 249 248 247 247 247 247 247
261 264 267 272 276 275 275 278 283 290 294 282 256 234 226 247 261 291 297 276 316 51 322 335 13 28 21 34 4 343 355 345 334 32 90 93 86 51 50 53 46 58 63 57 49 10 334 328 325 330 338 338 335 329 319 309 298 286 285 289 292 291 288 281 275 270 263 257 254 254 254 254 256 257 258 257 256 254 252 251 248 247 247 246 245
255 254 257 263 263 260 268 279 279 282 291 282 245 223 201 211 226 253 270 291 334 80 337 334 356 3 5 41 20 336 326 342 346 347 74 102 103 85 70 53 49 52 57 65 64 63 75 49 19 18 25 28 29 27 20 8 353 331 318 314 313 306 298 289 281 276 270 264 259 257 256 255 256 257 256 256 256 255 254 252 250 249 248 247 246
247 243 244 241 240 246 268 281 273 267 280 262 227 223 203 199 211 237 252 297 319 238 253 320 350 348 351 19 9 334 321 335 344 339 353 64 137 121 95 73 69 63 61 75 82 81 87 91 81 62 49 43 39 35 29 22 18 9 1 354 346 337 325 309 294 284 277 272 268 265 262 258 257 257 257 256 256 255 255 253 252 250 250 249 248
242 234 232 226 239 261 274 278 269 261 258 221 227 235 207 195 207 226 236 248 272 275 278 288 320 295 302 46 9 341 339 333 337 344 337 317 193 130 97 128 130 90 76 87 96 92 97 97 81 63 40 13 358 356 354 353 353 350 350 350 349 347 343 334 320 304 290 280 274 269 266 263 260 259 258 257 256 255 254 255 254 253 253 253 252
238 228 232 242 258 270 273 274 266 256 246 214 224 237 218 202 205 219 234 242 260 273 279 273 232 253 264 130 78 315 300 310 327 324 322 319 304 292 274 238 243 230 174 174 168 162 203 216 78 33 331 332 326 325 325 327 327 327 327 324 326 330 330 330 328 322 310 297 285 277 271 266 264 261 259 258 257 256 256 256 255 254 253 253 252
230 232 248 258 264 268 264 263 258 251 246 225 221 226 222 222 212 220 248 253 267 285 296 300 296 290 282 265 178 254 264 253 282 297 305 306 297 294 291 287 281 246 230 247 232 216 238 253 246 260 285 303 309 309 310 312 312 312 314 312 311 313 314 316 320 320 317 309 299 290 281 273 268 264 261 259 258 258 258 257 257 255 253 251 250
237 248 260 262 265 268 258 253 252 247 241 227 222 216 212 224 222 227 257 265 278 293 304 308 310 309 282 282 273 250 257 246 234 241 261 275 280 290 297 298 291 257 243 265 255 235 246 248 241 260 280 290 296 298 302 311 309 303 304 305 303 305 306 309 313 315 315 313 307 300 292 284 276 270 265 261 259 258 258 257 256 256 254 252 250
254 258 262 262 264 267 258 253 254 247 235 222 224 221 216 221 223 234 256 268 281 285 285 294 299 297 288 289 293 283 272 271 272 251 248 271 279 286 295 298 294 285 278 275 261 252 257 247 242 259 276 287 293 294 298 307 305 299 300 301 298 297 300 306 309 310 311 314 313 308 302 295 287 279 272 267 263 260 258 257 255 254 254 253 251
259 258 257 256 259 263 261 259 256 251 237 223 224 229 232 232 227 239 254 264 271 271 274 284 289 290 289 290 293 291 284 282 290 285 263 274 284 287 293 296 296 296 295 290 281 275 265 248 248 265 278 287 293 293 297 303 302 297 296 298 299 295 294 300 306 309 312 316 317 315 311 307 300 291 283 276 271 266 262 259 256 254 253 252 252
258 259 258 256 258 261 264 264 259 253 241 228 231 237 241 244 242 245 250 255 260 265 272 276 281 283 282 282 284 282 283 283 284 287 285 287 293 297 298 295 296 297 297 297 294 289 279 260 258 266 276 287 294 293 294 297 298 299 298 298 299 297 293 292 298 306 314 318 320 320 319 317 314 307 299 289 282 275 269 264 259 256 254 252 251
258 262 262 261 262 262 264 265 260 254 246 239 240 241 242 244 246 248 248 252 257 261 267 271 272 275 274 275 277 275 280 286 285 285 287 291 297 301 299 292 292 293 294 297 296 296 292 278 273 273 276 289 297 295 292 293 296 304 305 299 297 296 294 290 290 298 307 311 314 318 320 320 318 315 311 305 296 287 280 274 267 261 257 254 252
255 260 262 263 263 262 263 262 259 257 254 248 243 240 243 246 248 248 245 246 253 256 262 266 267 269 271 272 275 274 276 281 283 283 284 287 294 297 296 289 286 287 289 292 292 294 294 287 283 281 281 290 297 297 296 293 295 303 302 295 293 292 292 291 287 287 294 300 302 307 312 314 315 315 314 312 308 300 291 282 276 270 264 258 254
253 255 259 262 262 262 261 258 257 259 256 249 243 240 242 246 247 249 245 242 248 254 257 260 261 265 268 269 271 273 275 277 278 279 281 284 290 293 292 287 283 282 284 288 289 287 288 289 290 286 284 286 290 292 293 291 293 297 295 291 290 289 289 291 287 282 284 290 294 297 302 307 311 313 313 312 311 308 301 292 282 276 271 265 259
252 253 256 259 262 263 262 259 258 259 255 247 243 243 244 244 242 243 246 247 249 253 256 260 262 263 266 267 268 270 273 276 275 276 279 282 286 287 286 284 282 281 282 286 286 283 284 289 292 290 287 289 292 292 293 295 295 295 294 290 286 287 289 290 287 281 277 280 287 291 294 301 307 309 312 314 314 312 308 302 292 281 275 271 266
251 253 254 257 262 264 263 261 257 257 253 244 241 246 245 240 232 226 234 245 249 250 255 260 264 267 268 268 270 269 270 272 272 273 275 277 279 279 281 282 281 283 285 283 281 283 286 289 290 291 291 292 295 295 294 298 298 296 296 292 286 286 288 290 292 289 282 280 283 286 288 294 300 304 308 313 315 315 313 310 304 293 282 275 270
247 250 252 255 260 263 262 259 255 252 247 240 241 246 240 232 229 227 232 242 249 254 258 261 264 269 270 269 270 270 269 270 271 271 271 272 275 276 279 282 282 284 287 284 282 284 287 289 291 291 292 293 294 294 294 297 298 296 293 290 289 288 287 288 292 292 289 287 286 286 287 289 293 297 301 306 311 314 315 313 310 304 294 284 275
242 245 250 252 254 257 257 255 253 248 243 239 241 242 234 231 233 235 239 246 254 259 263 266 269 272 273 271 272 272 271 270 268 269 271 271 273 275 276 279 282 282 282 283 284 284 286 289 289 288 290 293 293 293 293 295 296 295 290 288 290 289 286 285 286 285 285 287 288 287 286 286 288 291 294 298 304 309 311 312 312 310 304 295 285
240 242 246 247 249 252 252 251 249 246 241 239 239 237 233 235 236 237 242 248 256 261 264 268 271 273 273 272 273 275 273 270 268 268 271 272 272 275 277 279 282 283 282 282 283 284 286 288 285 283 286 289 290 291 294 296 297 295 291 289 289 287 285 285 285 282 282 286 288 288 286 285 285 287 289 292 297 302 306 308 310 311 310 305 297
239 240 243 243 245 247 246 246 245 242 239 237 236 236 235 238 240 242 247 253 259 263 266 270 273 275 275 274 273 274 272 271 271 270 270 272 272 274 279 283 284 284 285 284 282 283 286 288 288 288 288 286 288 291 295 297 296 292 292 292 290 287 286 287 288 286 286 289 292 290 286 284 285 285 285 286 289 295 300 304 308 311 313 311 306
236 237 243 244 244 244 243 243 243 239 238 236 236 236 236 239 243 247 254 259 264 267 269 272 275 276 275 273 272 271 270 270 270 270 270 271 272 271 275 279 280 280 283 284 282 281 283 285 288 290 291 290 291 293 293 295 295 292 291 290 288 288 289 289 289 289 290 292 296 296 292 289 288 286 285 284 285 290 295 298 303 309 313 315 313
231 230 237 241 242 242 241 241 241 238 236 236 235 236 237 240 246 251 255 260 266 269 270 272 274 275 275 274 272 268 267 267 266 266 268 270 271 271 273 276 278 279 281 283 283 281 280 283 285 288 292 292 291 290 289 290 290 289 288 287 289 292 292 290 288 288 290 292 294 295 295 294 291 289 289 287 284 285 289 292 297 306 312 315 316
230 227 230 235 238 240 240 240 240 238 236 235 235 236 238 240 246 252 256 260 265 268 270 271 271 271 272 274 273 269 266 266 263 262 265 267 269 271 273 276 279 281 283 284 285 282 281 284 285 286 289 290 289 287 286 287 286 286 289 292 293 293 289 287 286 286 290 292 291 292 295 296 295 294 293 291 286 286 290 292 294 301 307 314 317
231 226 225 228 231 235 238 238 239 238 236 236 236 237 238 240 245 252 257 260 264 267 270 273 273 272 270 269 268 265 263 263 262 260 260 262 266 269 273 277 281 284 285 285 286 286 285 286 286 286 287 289 290 290 291 292 291 291 293 293 292 290 287 287 288 289 294 296 294 292 293 294 294 293 292 290 288 289 291 293 296 300 306 315 318
229 227 223 223 226 231 235 237 237 237 237 237 237 238 238 240 245 253 259 263 266 268 268 270 272 274 273 269 265 262 261 263 263 261 259 259 262 267 273 279 283 285 285 285 287 289 289 289 288 288 289 289 289 290 291 292 293 294 295 294 293 293 292 291 290 289 293 296 295 293 291 290 288 287 287 287 286 286 287 289 293 294 297 306 313
227 227 223 221 226 230 232 235 236 236 238 239 239 239 239 240 245 253 260 265 269 270 268 268 272 273 273 272 268 266 267 268 265 261 261 261 264 270 275 280 283 284 284 285 286 287 288 289 290 291 290 288 288 288 289 291 293 294 295 294 294 294 294 293 291 291 293 295 295 293 291 289 285 284 286 284 284 284 282 281 281 278 282 297 307
226 226 222 220 226 231 230 233 235 235 237 239 241 242 240 240 244 252 259 265 269 272 271 271 274 275 274 271 269 268 269 269 265 263 263 263 265 271 276 280 282 283 282 283 283 284 286 288 290 291 289 287 287 288 289 291 292 292 291 292 293 293 293 293 292 293 294 294 294 292 291 291 288 287 287 284 282 281 278 278 278 277 283 297 305
225 224 220 217 224 231 231 232 233 233 236 239 242 245 245 243 245 250 258 262 265 269 271 271 272 274 274 272 270 269 267 267 268 265 263 265 267 270 275 279 281 282 282 282 282 283 285 287 289 289 288 287 287 288 288 289 290 290 289 289 291 291 291 291 291 292 294 295 295 293 291 291 289 287 285 283 281 280 278 279 280 280 286 296 301
226 224 219 214 220 229 231 232 231 233 237 240 243 248 248 247 248 252 259 263 265 269 272 272 272 273 273 272 272 273 269 267 270 269 265 266 269 271 274 276 278 282 283 283 282 282 282 284 285 286 286 287 286 286 287 287 288 289 289 290 292 291 290 290 289 291 293 295 294 292 289 290 289 284 283 284 283 279 278 281 281 281 286 294 299
225 223 217 213 219 229 231 231 231 234 240 244 248 253 252 251 253 257 262 266 270 273 275 275 276 276 274 271 271 273 272 268 267 269 268 268 271 274 275 275 277 281 282 283 283 282 283 284 285 286 288 287 285 285 286 284 284 287 289 291 292 291 290 291 291 293 296 298 297 292 288 289 291 286 284 285 284 281 281 285 285 282 285 292 297
225 223 218 216 224 231 233 233 234 237 243 249 256 261 259 255 258 261 264 268 272 275 276 278 279 277 274 273 271 271 271 269 268 271 272 273 273 275 276 275 276 276 276 279 281 281 281 285 288 289 288 286 283 281 281 280 281 284 286 288 289 290 291 293 294 296 297 297 296 290 285 286 289 287 284 286 285 283 284 286 285 282 283 289 295
225 224 221 222 228 232 235 238 238 240 248 256 266 271 266 261 262 262 266 271 273 273 275 276 277 275 274 273 271 270 271 272 273 274 274 275 274 275 275 274 273 272 274 278 279 277 277 282 286 286 284 282 281 278 277 278 280 283 285 286 288 291 292 292 292 292 292 290 289 285 283 284 287 286 286 287 286 284 284 284 283 281 282 286 294
225 224 224 225 228 231 235 241 244 247 255 265 272 273 266 263 263 262 267 273 275 274 273 272 274 275 274 273 274 276 277 275 274 273 273 273 272 272 273 274 275 277 280 281 280 278 281 285 289 290 287 286 284 280 278 278 279 282 284 286 290 293 291 289 289 289 290 290 290 287 283 284 287 288 288 289 287 284 284 284 282 281 283 287 293
223 226 226 225 228 231 235 242 249 255 262 272 277 272 264 262 262 260 265 272 275 275 274 273 275 276 275 275 276 278 278 278 276 274 272 270 269 269 271 273 275 279 280 278 276 279 284 289 294 296 295 295 294 289 284 280 277 279 284 290 294 293 288 288 290 292 292 291 291 289 286 287 290 290 290 290 289 285 284 286 287 288 291 293 295
223 226 226 224 227 232 236 242 252 261 267 273 277 274 267 263 260 260 264 268 270 274 276 277 277 277 278 281 282 280 278 276 274 271 269 268 268 268 269 271 272 273 273 271 271 276 281 285 288 290 291 293 295 295 291 287 284 287 292 295 295 290 288 290 292 293 292 291 293 292 289 290 292 291 290 292 292 291 291 292 293 294 296 296 294